TimeCST,TemperatureF,Dew PointF,Humidity,Sea Level PressureIn,VisibilityMPH,Wind Direction,Wind SpeedMPH,Gust SpeedMPH,PrecipitationIn,Events,Conditions,WindDirDegrees,DateUTC
12:53 AM,24.1,19.9,84,30.23,9.0,NNW,8.1,-,0.00,,Overcast,330,2013-03-02 06:53:00
1:49 AM,23.0,19.4,86,30.19,10.0,NNW,9.2,-,N/A,,Overcast,330,2013-03-02 07:49:00
1:53 AM,23.0,19.0,85,30.23,10.0,NNW,10.4,-,N/A,,Overcast,330,2013-03-02 07:53:00
2:27 AM,23.0,19.4,86,30.19,10.0,NNW,10.4,-,N/A,,Overcast,330,2013-03-02 08:27:00
2:53 AM,23.0,18.0,81,30.23,10.0,NNW,9.2,-,N/A,,Overcast,330,2013-03-02 08:53:00
3:53 AM,21.9,18.0,85,30.22,10.0,NW,9.2,-,0.00,,Overcast,320,2013-03-02 09:53:00
4:35 AM,21.2,17.6,86,30.19,10.0,NNW,10.4,-,N/A,,Overcast,330,2013-03-02 10:35:00
4:53 AM,21.9,18.0,85,30.23,4.0,NW,9.2,-,0.00,Snow,Light Snow,310,2013-03-02 10:53:00
5:34 AM,21.2,17.6,86,30.19,8.0,NW,11.5,-,0.00,,Overcast,320,2013-03-02 11:34:00
5:53 AM,21.0,18.0,88,30.25,6.0,NNW,10.4,-,0.00,Snow,Light Snow,330,2013-03-02 11:53:00
6:53 AM,21.0,18.0,88,30.27,3.0,NNW,9.2,-,0.00,Snow,Light Snow,330,2013-03-02 12:53:00
7:08 AM,21.2,19.4,93,30.23,2.5,NW,5.8,-,0.00,Snow,Light Snow,320,2013-03-02 13:08:00
7:18 AM,21.2,19.4,93,30.23,4.0,NW,8.1,-,0.00,Snow,Light Snow,320,2013-03-02 13:18:00
7:33 AM,21.2,19.4,93,30.23,1.8,NW,8.1,-,0.00,Snow,Light Snow,320,2013-03-02 13:33:00
7:42 AM,21.2,19.4,93,30.23,2.5,NNW,8.1,-,0.00,Snow,Light Snow,330,2013-03-02 13:42:00
7:47 AM,21.2,19.4,93,30.23,3.0,NW,9.2,-,0.00,Snow,Light Snow,320,2013-03-02 13:47:00
7:53 AM,21.9,19.9,92,30.28,2.5,NNW,8.1,-,0.00,Snow,Light Snow,330,2013-03-02 13:53:00
8:07 AM,21.2,19.4,93,30.24,1.5,NW,11.5,-,0.00,Snow,Light Snow,320,2013-03-02 14:07:00
8:15 AM,23.0,19.4,86,30.24,2.0,NW,10.4,-,0.00,Snow,Light Snow,320,2013-03-02 14:15:00
8:28 AM,23.0,17.6,80,30.24,4.0,NW,11.5,-,0.00,Snow,Light Snow,320,2013-03-02 14:28:00
8:53 AM,23.0,19.0,85,30.29,8.0,NNW,11.5,-,0.00,,Overcast,340,2013-03-02 14:53:00
9:34 AM,24.8,17.6,74,30.25,10.0,North,12.7,-,N/A,,Overcast,350,2013-03-02 15:34:00
9:53 AM,25.0,18.0,75,30.29,10.0,NNW,11.5,-,N/A,,Overcast,340,2013-03-02 15:53:00
10:00 AM,24.8,17.6,74,30.25,10.0,NNW,13.8,-,N/A,,Overcast,330,2013-03-02 16:00:00
10:28 AM,24.8,17.6,74,30.25,10.0,NW,10.4,-,N/A,,Overcast,310,2013-03-02 16:28:00
10:53 AM,25.0,17.1,72,30.30,8.0,NNW,11.5,-,0.00,Snow,Light Snow,340,2013-03-02 16:53:00
11:53 AM,26.1,17.1,69,30.30,10.0,NNW,10.4,-,0.00,,Overcast,330,2013-03-02 17:53:00
12:53 PM,27.0,17.1,66,30.27,10.0,NNW,10.4,-,N/A,,Overcast,340,2013-03-02 18:53:00
1:53 PM,28.9,16.0,58,30.25,10.0,NW,8.1,-,N/A,,Mostly Cloudy,320,2013-03-02 19:53:00
2:53 PM,30.0,16.0,56,30.24,10.0,NW,8.1,-,N/A,,Scattered Clouds,310,2013-03-02 20:53:00
3:53 PM,30.0,16.0,56,30.24,10.0,NNW,9.2,-,N/A,,Scattered Clouds,330,2013-03-02 21:53:00
4:53 PM,30.0,16.0,56,30.25,10.0,NNW,9.2,-,N/A,,Scattered Clouds,330,2013-03-02 22:53:00
5:53 PM,28.0,15.1,58,30.25,10.0,WNW,6.9,-,N/A,,Clear,300,2013-03-02 23:53:00
6:53 PM,25.0,15.1,66,30.26,10.0,WNW,6.9,-,N/A,,Clear,290,2013-03-03 00:53:00
7:53 PM,23.0,15.1,72,30.26,10.0,WNW,6.9,-,N/A,,Clear,290,2013-03-03 01:53:00
8:53 PM,21.9,15.1,75,30.26,10.0,NW,5.8,-,N/A,,Clear,310,2013-03-03 02:53:00
9:53 PM,19.9,12.9,74,30.25,10.0,NW,3.5,-,N/A,,Clear,310,2013-03-03 03:53:00
10:53 PM,18.0,12.0,78,30.24,10.0,Calm,Calm,-,N/A,,Clear,0,2013-03-03 04:53:00
11:53 PM,17.1,12.9,84,30.23,10.0,Calm,Calm,-,N/A,,Clear,0,2013-03-03 05:53:00